,

(GMT )
Teruel

Tiempo Historia de LETL - Mayo, 2018

Change the Weather History Date:

Jueves, Mayo 17, 2018

  Actual Average Record
Temperature  
Temperatura media 55 ° F -  
Temperatura máxima 69 ° F - - ()
Temperatura mínima 41 ° F - - ()
Degree Days  
Grados día de calefacción 10    
Growing Degree Days 5 (Base 50)    
Moisture  
Punto de rocío 38 ° F    
Average Humidity 55    
Maximum Humidity 81    
Minimum Humidity 24    
Precipitación  
Precipitación 0.00 pul - - ()
Presión al nivel del mar  
Presión al nivel del mar 30.04 pul    
Viento  
Velocidad del viento 4 mph ()    
Velocidad máxima del viento 23 mph    
Max Gust Speed -    
Visibilidad 6.2 Millas    
Eventos Lluvia    
T = Trace of Precipitation, MM = Missing Value Source: Averaged Metar Reports

Daily Weather History Graph

Daily Weather History Graph

Search for Another Location

Airport or City:

Astronomía

May. 17, 2018 Salida Puesta
Hora real 6:46 AM CEST 9:16 PM CEST
Crepúsculo civil 6:15 AM CEST 9:47 PM CEST
Crepúsculo náutico 5:37 AM CEST 10:26 PM CEST
Crepúsculo astronómico 4:54 AM CEST 11:09 PM CEST
Luna 8:37 AM CEST (5/17) 11:34 PM CEST (5/17)
Horas de luz 15h 31m
Horas de luz
14h 29m
Creciente, 5% of the Moon is Illuminated
May 17
Creciente
May 22
Cuarto creciente
May 29
Luna llena
Jun 6
Cuarto menguante
Jun 13
Nueva

Hourly Weather History & Observations

Hora (CEST) Temp. Vientos helados Punto de rocío Humedad Presión Visibilidad Wind Dir Velocidad del viento Velocidad de ráfagas Precip Eventos Condiciones
12:30 AM 51.8 ° F - 39.2 ° F 62% 30.06 pul 6.2 mi SSE 2.3 mph - N/A   Desconocido
1:00 AM 50.0 ° F - 37.4 ° F 62% 30.06 pul 6.2 mi SE 2.3 mph - N/A   Desconocido
2:00 AM 46.4 ° F - 37.4 ° F 71% 30.06 pul 6.2 mi Variable 1.2 mph - N/A   Desconocido
4:00 AM 46.4 ° F 43.5 ° F 37.4 ° F 71% 30.06 pul 6.2 mi SE 5.8 mph - N/A   Desconocido
4:30 AM 44.6 ° F 42.2 ° F 37.4 ° F 76% 30.06 pul 6.2 mi Sur 4.6 mph - N/A   Desconocido
5:00 AM 42.8 ° F - 37.4 ° F 81% 30.06 pul 6.2 mi Variable 2.3 mph - N/A   Desconocido
6:00 AM 44.6 ° F 42.2 ° F 37.4 ° F 76% 30.06 pul 6.2 mi SSE 4.6 mph - N/A   Desconocido
7:00 AM 41.0 ° F 37.1 ° F 35.6 ° F 81% 30.06 pul 6.2 mi SSO 5.8 mph - N/A   Desconocido
7:30 AM 44.6 ° F - 37.4 ° F 76% 30.06 pul 6.2 mi Variable 2.3 mph - N/A   Desconocido
8:00 AM 44.6 ° F - 37.4 ° F 76% 30.06 pul 6.2 mi Variable 2.3 mph - N/A   Desconocido
9:00 AM 50.0 ° F - 39.2 ° F 66% 30.06 pul 6.2 mi SE 3.5 mph - N/A   Desconocido
9:30 AM 53.6 ° F - 39.2 ° F 58% 30.06 pul 6.2 mi ESE 4.6 mph - N/A   Desconocido
10:00 AM 55.4 ° F - 39.2 ° F 54% 30.06 pul 6.2 mi ESE 4.6 mph - N/A   Desconocido
12:00 PM 64.4 ° F - 35.6 ° F 34% 30.04 pul 6.2 mi ESE 4.6 mph - N/A   Desconocido
12:30 PM 66.2 ° F - 33.8 ° F 30% 30.04 pul 6.2 mi ESE 5.8 mph - N/A   Desconocido
1:00 PM 66.2 ° F - 32.0 ° F 28% 30.04 pul 6.2 mi Variable 3.5 mph - N/A   Desconocido
1:30 PM 68.0 ° F - 33.8 ° F 28% 30.04 pul 6.2 mi Norte 2.3 mph - N/A   Desconocido
2:00 PM 68.0 ° F - 30.2 ° F 24% 30.01 pul 6.2 mi SE 6.9 mph - N/A   Desconocido
2:30 PM 68.0 ° F - 30.2 ° F 24% 30.01 pul 6.2 mi Sur 8.1 mph - N/A   Desconocido
4:30 PM 69.8 ° F - 32.0 ° F 25% 29.98 pul - ESE 5.8 mph - N/A   Despejado
5:00 PM 69.8 ° F - 33.8 ° F 27% 29.98 pul - SSE 8.1 mph - N/A   Despejado
6:00 PM 64.4 ° F - 42.8 ° F 45% 29.98 pul - ENE 23.0 mph - N/A   Despejado
7:00 PM 59.0 ° F - 46.4 ° F 63% 30.01 pul - Este 18.4 mph - N/A   Despejado
7:30 PM 59.0 ° F - 42.8 ° F 55% 30.01 pul - ESE 13.8 mph - N/A   Despejado
10:00 PM 57.2 ° F - 44.6 ° F 63% 30.04 pul 6.2 mi Sur 10.4 mph - N/A   Llovizna débil
11:00 PM 55.4 ° F - 46.4 ° F 72% 30.06 pul 6.2 mi Variable 2.3 mph - N/A Lluvia Lluvia